[[{"header":{"parameterUnit":"m.s-1","parameterCategory":1,"la1":30.2991,"la2":30.254,"lo1":-89.0895,"lo2":-89.0444,"dy":0.0017,"dx":0.0017,"nx":28,"ny":28,"refTime":"2024-04-30T09:00:00:Z","depth":0,"parameterNumber":2,"parameterNumberName":"U-component_of_WINDS"},"data":[0,0,0,0,0,0,0,0,0,0,0,0,0,0,0,0,0,0,0,0,0,0,0,0,0,0,0,0,0,0,0,0,0,0,0,0,0,0,0,0,0,0,0,0,0,0,0,0,0,0,0,0,0,0,0,0,0,0,-2.0879,-2.0878,0,-2.0832,-2.0832,-2.0831,-2.0765,-2.0764,-2.0763,-2.0762,-2.0713,-2.0713,-2.0712,0,0,0,0,0,0,0,0,0,0,0,0,0,-2.0911,-2.091,-2.0879,-2.0878,-2.0877,-2.0832,-2.0832,-2.0831,-2.0766,-2.0764,-2.0763,-2.0762,-2.0713,-2.0713,-2.0712,0,0,0,0,0,0,0,0,0,0,0,0,0,-2.0884,-2.091,-2.0879,-2.0839,-2.0835,-2.0832,-2.0832,-2.0831,-2.0766,-2.0764,-2.0763,-2.0761,-2.0713,-2.0713,-2.0712,-2.0743,0,0,-2.0711,-2.0711,0,0,0,0,0,0,0,0,-2.0885,-2.0883,-2.0846,-2.0842,-2.0838,-2.0803,-2.0825,-2.0801,-2.0766,-2.0792,-2.0762,-2.076,-2.0744,-2.0741,-2.0736,-2.0741,-2.0739,-2.0711,-2.0711,-2.0711,-2.0711,0,0,0,0,0,0,0,-2.0887,-2.0884,-2.086,-2.0845,-2.084,-2.0824,-2.0819,-2.082,-2.0778,-2.079,-2.0785,-2.0781,-2.0742,-2.0737,-2.0734,-2.0738,-2.0711,-2.0711,-2.071,-2.071,-2.0768,-2.0769,0,0,0,0,0,0,-2.0895,-2.0886,-2.0862,-2.0859,-2.0858,-2.0825,-2.0819,-2.0816,-2.0778,-2.0771,-2.0782,-2.0778,-2.0738,-2.0735,-2.0732,-2.0766,-2.0711,-2.071,-2.071,-2.0766,-2.0768,-2.077,0,0,0,0,0,0,-2.0896,-2.0894,-2.0863,-2.0871,-2.0866,-2.0826,-2.0824,-2.0816,-2.081,-2.0772,-2.0764,-2.0785,-2.0737,-2.0733,-2.0742,-2.0764,-2.071,-2.071,-2.0764,-2.0767,-2.0769,-2.0835,0,0,0,0,0,0,-2.0897,-2.0894,-2.0905,-2.0872,-2.0866,-2.0874,-2.0825,-2.0816,-2.081,-2.0804,-2.0772,-2.0765,-2.0735,-2.0743,-2.0741,-2.0762,-2.0709,-2.0762,-2.0765,-2.0768,-2.0831,-2.084,-2.0847,0,0,0,0,0,-2.0899,-2.0925,-2.0906,-2.0904,-2.0879,-2.0875,-2.0871,-2.0836,-2.0812,-2.0823,-2.0799,-2.0766,-2.0762,-2.0744,-2.0742,-2.0763,-2.076,-2.0764,-2.0768,-2.0827,-2.0838,-2.0847,0,0,0,0,0,0,-2.0961,-2.092,-2.0899,-2.0915,-2.0899,-2.0864,-2.0876,-2.0849,-2.0839,-2.0833,-2.079,-2.0784,-2.0798,-2.0781,-2.0762,-2.0792,-2.0756,-2.076,-2.0802,-2.0812,-2.082,-2.0823,-2.0709,0,0,0,0,0,-2.0977,-2.0977,-2.0941,-2.0959,-2.0953,-2.0917,-2.0913,-2.0888,-2.0869,-2.0862,-2.0838,-2.0821,-2.0816,-2.0813,-2.0806,-2.0829,-2.0821,-2.0843,-2.0851,-2.0858,-2.0861,-2.0873,-2.0882,-2.0783,-2.0783,-2.0783,0,0,-2.1009,-2.0987,-2.099,-2.0972,-2.0956,-2.0957,-2.0911,-2.0914,-2.0914,-2.0862,-2.0869,-2.0851,-2.0829,-2.0846,-2.0851,-2.0832,-2.0887,-2.0863,-2.0869,-2.0868,-2.0878,-2.0887,-2.0896,-2.0786,-2.0785,-2.0785,0,0,-2.1069,-2.1052,-2.1066,-2.1052,-2.103,-2.1006,-2.101,-2.0979,-2.0965,-2.0972,-2.0933,-2.0933,-2.0925,-2.0912,-2.0904,-2.0961,-2.0931,-2.096,-2.1003,-2.1015,-2.1023,-2.1029,-2.105,-2.1057,-2.0964,-2.0964,-2.0964,0,-2.1112,-2.1112,-2.1076,-2.1082,-2.1075,-2.103,-2.1043,-2.1032,-2.1008,-2.1005,-2.0985,-2.0975,-2.0957,-2.0969,-2.0984,-2.0979,-2.0981,-2.0963,-2.1025,-2.1031,-2.1036,-2.1055,-2.1063,-2.0968,-2.0967,-2.0967,-2.0967,0,-2.1166,-2.1167,-2.1181,-2.116,-2.1155,-2.1165,-2.1131,-2.1131,-2.1107,-2.1085,-2.1093,-2.1071,-2.1059,-2.106,-2.1036,-2.107,-2.1059,-2.1033,-2.0995,-2.105,-2.1067,-2.1074,-2.0973,-2.0972,-2.0971,-2.097,0,0,-2.1261,-2.1222,-2.1228,-2.1219,-2.1192,-2.1192,-2.1201,-2.119,-2.1191,-2.1177,-2.1183,-2.1179,-2.1154,-2.1146,-2.112,-2.1131,-2.1178,-2.1102,-2.1101,-2.1117,-2.1214,-2.1234,-2.1243,-2.1159,-2.116,-2.1161,-2.1216,0,-2.1314,-2.1326,-2.1295,-2.1315,-2.1316,-2.1274,-2.1282,-2.1266,-2.1247,-2.1245,-2.1224,-2.1222,-2.119,-2.1184,-2.1193,-2.117,-2.1197,-2.1166,-2.1163,-2.1164,-2.1169,-2.1251,-2.1272,-2.1324,-2.1222,-2.1223,-2.1224,0,-2.1377,-2.1368,-2.1389,-2.1362,-2.1362,-2.1369,-2.1357,-2.1356,-2.1339,-2.1324,-2.1316,-2.1287,-2.1294,-2.126,-2.1269,-2.1249,-2.1246,-2.1236,-2.1237,-2.1234,-2.1196,-2.125,-2.134,-2.1348,-2.1234,-2.1234,-2.1233,0,-2.1445,-2.1437,-2.1448,-2.1442,-2.1412,-2.1418,-2.1406,-2.1387,-2.1383,-2.1373,-2.1371,-2.1362,-2.1357,-2.1351,-2.1321,-2.1299,-2.1334,-2.1297,-2.1321,-2.1322,-2.1329,-2.1328,-2.1419,-2.1329,-2.1329,-2.1329,-2.1329,0,-2.1507,-2.1521,-2.1478,-2.1485,-2.15,-2.1465,-2.148,-2.1464,-2.1448,-2.1451,-2.1415,-2.1419,-2.1379,-2.1379,-2.1355,-2.1366,-2.1364,-2.1353,-2.1346,-2.1355,-2.1357,-2.1352,-2.1347,-2.1331,-2.1331,-2.133,-2.133,0,-2.1583,-2.1555,-2.1565,-2.1536,-2.153,-2.1542,-2.1517,-2.1523,-2.1503,-2.1507,-2.1506,-2.1474,-2.1472,-2.1442,-2.1433,-2.1417,-2.1438,-2.1425,-2.1444,-2.1439,-2.1465,-2.1463,-2.1554,-2.1564,-2.147,-2.1471,-2.1471,0,-2.1624,-2.1634,-2.1607,-2.1607,-2.1597,-2.1597,-2.1593,-2.156,-2.1558,-2.154,-2.1548,-2.1543,-2.1537,-2.1536,-2.1512,-2.1505,-2.1491,-2.1524,-2.149,-2.1499,-2.1491,-2.149,-2.1491,-2.153,-2.1532,-2.1533,-2.1533,0,-2.17,-2.1686,-2.1682,-2.1675,-2.1672,-2.1664,-2.1654,-2.1656,-2.1619,-2.1619,-2.1617,-2.1613,-2.1605,-2.16,-2.159,-2.1577,-2.155,-2.1545,-2.155,-2.1559,-2.1569,-2.1564,-2.1462,-2.1542,-2.1541,-2.1541,-2.154,-2.154,-2.1759,-2.1766,-2.1749,-2.1747,-2.1736,-2.1728,-2.1732,-2.1713,-2.1711,-2.1702,-2.1683,-2.1684,-2.1668,-2.1651,-2.1641,-2.1642,-2.1625,-2.1632,-2.1634,-2.1636,-2.1641,-2.1571,-2.164,-2.1639,-2.1639,-2.1639,-2.1639,0,-2.1833,-2.182,-2.1818,-2.1806,-2.1805,-2.178,-2.1768,-2.1768,-2.177,-2.1758,-2.1753,-2.1752,-2.1748,-2.1725,-2.1718,-2.1723,-2.1711,-2.1723,-2.1721,-2.1719,-2.1657,-2.1653,-2.1733,-2.1733,-2.1733,-2.1733,-2.1733,-2.1733,-2.1871,-2.1882,-2.1866,-2.1872,-2.186,-2.1861,-2.1856,-2.1849,-2.1839,-2.1839,-2.1836,-2.1821,-2.1804,-2.1797,-2.1793,-2.1786,-2.1785,-2.1802,-2.1791,-2.1733,-2.1723,-2.1715,-2.171,-2.1802,-2.1802,-2.1853,-2.1854,-2.1854]},{"header":{"parameterUnit":"m.s-1","parameterCategory":1,"la1":30.2991,"la2":30.254,"lo1":-89.0895,"lo2":-89.0444,"dy":0.0017,"dx":0.0017,"nx":28,"ny":28,"refTime":"2024-04-30T09:00:00:Z","depth":0,"parameterNumber":3,"parameterNumberName":"V-component_of_WINDS"},"data":[0,0,0,0,0,0,0,0,0,0,0,0,0,0,0,0,0,0,0,0,0,0,0,0,0,0,0,0,0,0,0,0,0,0,0,0,0,0,0,0,0,0,0,0,0,0,0,0,0,0,0,0,0,0,0,0,0,0,1.8528,1.8529,0,1.8568,1.8569,1.8569,1.8612,1.8612,1.8613,1.8613,1.8652,1.8652,1.8652,0,0,0,0,0,0,0,0,0,0,0,0,0,1.8487,1.8487,1.8528,1.8529,1.8529,1.8568,1.8569,1.8569,1.8612,1.8612,1.8613,1.8614,1.8651,1.8652,1.8652,0,0,0,0,0,0,0,0,0,0,0,0,0,1.8513,1.8487,1.8528,1.8555,1.8558,1.8568,1.8569,1.857,1.8611,1.8612,1.8613,1.8614,1.8651,1.8652,1.8653,1.8639,0,0,1.8655,1.8655,0,0,0,0,0,0,0,0,1.8512,1.8515,1.8551,1.8553,1.8556,1.8586,1.8568,1.8593,1.8611,1.8591,1.8613,1.8614,1.8629,1.8631,1.8637,1.864,1.8642,1.8655,1.8655,1.8655,1.8656,0,0,0,0,0,0,0,1.851,1.8513,1.8544,1.8551,1.8555,1.8565,1.8569,1.8573,1.8604,1.8593,1.8596,1.86,1.8631,1.8636,1.8638,1.8643,1.8655,1.8655,1.8656,1.8656,1.8639,1.8638,0,0,0,0,0,0,1.8504,1.8512,1.8543,1.8545,1.8536,1.8565,1.857,1.8576,1.8604,1.861,1.8599,1.8602,1.8634,1.8637,1.864,1.8627,1.8655,1.8656,1.8656,1.864,1.8639,1.8638,0,0,0,0,0,0,1.8503,1.8507,1.8541,1.8529,1.8535,1.8564,1.857,1.8576,1.8582,1.8609,1.8615,1.86,1.8635,1.8639,1.8639,1.8629,1.8656,1.8657,1.8641,1.8639,1.8638,1.86,0,0,0,0,0,0,1.8502,1.8506,1.8501,1.8529,1.8535,1.8541,1.857,1.8576,1.8583,1.8587,1.8611,1.8616,1.8636,1.8638,1.864,1.863,1.8657,1.8642,1.864,1.8638,1.8602,1.8597,1.8593,0,0,0,0,0,1.85,1.8488,1.8501,1.8505,1.853,1.854,1.8543,1.8568,1.8582,1.8577,1.8596,1.8615,1.8629,1.8638,1.864,1.863,1.8643,1.8641,1.8639,1.8604,1.8598,1.8593,0,0,0,0,0,0,1.8457,1.8492,1.8507,1.8503,1.8518,1.8547,1.8542,1.8561,1.8571,1.8574,1.8604,1.8609,1.8606,1.8618,1.8627,1.8619,1.8639,1.8637,1.8612,1.8606,1.8602,1.8599,1.8658,0,0,0,0,0,1.8447,1.8453,1.8483,1.8477,1.8484,1.8512,1.8517,1.8535,1.8551,1.8557,1.8576,1.859,1.8598,1.8603,1.8611,1.8604,1.861,1.8598,1.8594,1.859,1.8589,1.8587,1.8582,1.8631,1.8631,1.8631,0,0,1.8427,1.8447,1.8448,1.8469,1.8483,1.8488,1.8517,1.852,1.8525,1.8558,1.856,1.8574,1.8592,1.8589,1.8589,1.8599,1.8577,1.8588,1.8584,1.8585,1.8585,1.858,1.8576,1.863,1.863,1.863,0,0,1.8392,1.8408,1.8405,1.8419,1.844,1.8459,1.8458,1.8485,1.8495,1.8499,1.8524,1.8529,1.8542,1.8554,1.8562,1.8534,1.8553,1.8536,1.8513,1.8511,1.8507,1.8504,1.8495,1.8491,1.8534,1.8534,1.8534,0,1.8364,1.8374,1.8401,1.8404,1.8413,1.8445,1.8443,1.8454,1.8476,1.8482,1.8493,1.8511,1.8525,1.8527,1.852,1.8525,1.8525,1.8534,1.8506,1.8503,1.85,1.8492,1.8488,1.8532,1.8532,1.8533,1.8533,0,1.8339,1.8345,1.834,1.8363,1.8371,1.8371,1.8399,1.8403,1.842,1.8438,1.8441,1.846,1.8474,1.8475,1.8491,1.8479,1.8485,1.85,1.8521,1.8493,1.8486,1.8483,1.8529,1.853,1.853,1.8531,0,0,1.8278,1.8317,1.8315,1.8326,1.8353,1.8358,1.836,1.8374,1.8378,1.8393,1.8396,1.8406,1.8422,1.8431,1.8449,1.8447,1.8425,1.8463,1.8464,1.8456,1.8414,1.8403,1.8399,1.8437,1.8437,1.8437,1.8413,0,1.8249,1.8256,1.8281,1.828,1.8287,1.8317,1.8319,1.8335,1.8352,1.8359,1.8377,1.8385,1.8404,1.841,1.8409,1.8428,1.8417,1.843,1.844,1.844,1.8436,1.8395,1.8383,1.8359,1.841,1.841,1.8409,0,1.8216,1.8231,1.8231,1.8258,1.8262,1.8263,1.828,1.8287,1.8306,1.8318,1.8329,1.8349,1.8353,1.8372,1.8377,1.8386,1.8391,1.8401,1.8401,1.8403,1.8424,1.8397,1.8352,1.8349,1.8405,1.8405,1.8406,0,1.8174,1.8193,1.8196,1.8204,1.8236,1.8237,1.825,1.827,1.8278,1.8292,1.8297,1.8311,1.8318,1.8328,1.8352,1.8363,1.8355,1.8376,1.8366,1.8365,1.8363,1.8363,1.832,1.8365,1.8365,1.8365,1.8365,0,1.8139,1.8138,1.8177,1.8179,1.8179,1.8208,1.8207,1.8223,1.8241,1.8247,1.8273,1.8277,1.8308,1.8316,1.8334,1.8337,1.8339,1.835,1.8355,1.8348,1.8347,1.8353,1.8355,1.8364,1.8365,1.8365,1.8365,0,1.8092,1.8118,1.8124,1.8154,1.8162,1.8161,1.8186,1.8189,1.8208,1.8214,1.8217,1.8246,1.8257,1.8281,1.8298,1.831,1.8309,1.8317,1.8303,1.8306,1.8296,1.8297,1.8255,1.8252,1.8298,1.8297,1.8297,0,1.8069,1.807,1.8101,1.8107,1.812,1.8129,1.8137,1.8166,1.8174,1.8196,1.8197,1.821,1.8222,1.8237,1.8259,1.8272,1.8282,1.8267,1.8284,1.8278,1.8283,1.8284,1.8284,1.8263,1.8262,1.8262,1.8261,0,1.8026,1.8039,1.8051,1.8068,1.8078,1.8092,1.8108,1.8111,1.8143,1.8151,1.8163,1.8172,1.8191,1.8203,1.822,1.8233,1.8253,1.8256,1.8254,1.8248,1.824,1.8246,1.8294,1.8257,1.8257,1.8257,1.8258,1.8258,1.7991,1.7994,1.8017,1.8029,1.8045,1.8059,1.8064,1.8084,1.8094,1.8112,1.8128,1.8139,1.8159,1.8184,1.8196,1.8204,1.8214,1.8212,1.8211,1.8211,1.8208,1.8238,1.8207,1.8207,1.8208,1.8208,1.8208,0,1.7951,1.7968,1.7979,1.8001,1.8011,1.803,1.8048,1.8055,1.8065,1.8083,1.8095,1.8109,1.8122,1.8145,1.816,1.8162,1.8172,1.8165,1.8166,1.8169,1.8198,1.8198,1.8158,1.8158,1.8158,1.8158,1.8158,1.8158,1.7931,1.7937,1.7953,1.7966,1.7983,1.7995,1.8004,1.8017,1.8032,1.8047,1.8059,1.8074,1.8094,1.8111,1.8124,1.813,1.8135,1.8126,1.8135,1.8162,1.8167,1.8171,1.8172,1.8126,1.8126,1.8106,1.8105,1.8105]}]]